Time,TemperatureF,DewpointF,PressureIn,WindDirection,WindDirectionDegrees,WindSpeedMPH,WindSpeedGustMPH,Humidity,HourlyPrecipIn,Conditions,Clouds,dailyrainin,SoftwareType,DateUTC
2013-09-14 00:02:00,66.6,36.5,29.74,SW,221,0.0,0.0,33,0.00,,,0.00,meteohub,2013-09-14 07:02:00,
2013-09-14 00:07:00,66.6,37.4,29.74,SW,221,0.0,0.0,34,0.00,,,0.00,meteohub,2013-09-14 07:07:00,
2013-09-14 00:12:00,66.6,36.5,29.74,SW,221,0.0,0.0,33,0.00,,,0.00,meteohub,2013-09-14 07:12:00,
2013-09-14 00:17:00,66.4,36.3,29.73,SW,221,0.0,0.0,33,0.00,,,0.00,meteohub,2013-09-14 07:17:00,
2013-09-14 00:22:00,66.4,36.3,29.73,SW,222,0.0,0.0,33,0.00,,,0.00,meteohub,2013-09-14 07:22:00,
2013-09-14 00:27:00,66.4,36.3,29.73,SW,219,0.0,0.0,33,0.00,,,0.00,meteohub,2013-09-14 07:27:00,
2013-09-14 00:32:00,66.4,36.3,29.74,SW,219,0.0,0.0,33,0.00,,,0.00,meteohub,2013-09-14 07:32:00,
2013-09-14 00:37:00,66.6,36.5,29.73,SW,219,0.0,0.0,33,0.00,,,0.00,meteohub,2013-09-14 07:37:00,
2013-09-14 00:42:00,66.7,36.7,29.73,SW,219,0.0,0.0,33,0.00,,,0.00,meteohub,2013-09-14 07:42:00,
2013-09-14 00:47:00,66.7,37.4,29.73,SW,220,0.0,0.0,34,0.00,,,0.00,meteohub,2013-09-14 07:47:00,
2013-09-14 00:52:00,66.6,38.1,29.73,SW,219,0.0,0.0,35,0.00,,,0.00,meteohub,2013-09-14 07:52:00,
2013-09-14 00:57:00,66.6,38.1,29.73,SW,219,0.0,0.0,35,0.00,,,0.00,meteohub,2013-09-14 07:57:00,
2013-09-14 01:02:00,66.7,39.0,29.73,SW,221,0.0,0.0,36,0.00,,,0.00,meteohub,2013-09-14 08:02:00,
2013-09-14 01:07:00,66.6,38.8,29.73,SW,222,0.0,0.0,36,0.00,,,0.00,meteohub,2013-09-14 08:07:00,
2013-09-14 01:12:00,66.6,38.8,29.73,SW,222,0.0,0.0,36,0.00,,,0.00,meteohub,2013-09-14 08:12:00,
2013-09-14 01:17:00,66.7,39.0,29.73,SW,222,0.0,0.0,36,0.00,,,0.00,meteohub,2013-09-14 08:17:00,
2013-09-14 01:22:00,66.7,39.0,29.73,SW,222,0.0,0.0,36,0.00,,,0.00,meteohub,2013-09-14 08:22:00,
2013-09-14 01:27:00,66.7,39.0,29.73,SW,222,0.0,0.0,36,0.00,,,0.00,meteohub,2013-09-14 08:27:00,
2013-09-14 01:32:00,66.9,39.7,29.73,SW,219,0.0,0.0,37,0.00,,,0.00,meteohub,2013-09-14 08:32:00,
2013-09-14 01:37:00,66.9,39.7,29.73,SW,221,0.0,0.0,37,0.00,,,0.00,meteohub,2013-09-14 08:37:00,
2013-09-14 01:42:00,66.9,39.7,29.72,SW,221,0.0,0.0,37,0.00,,,0.00,meteohub,2013-09-14 08:42:00,
2013-09-14 01:47:00,66.7,39.0,29.72,SW,221,0.0,0.0,36,0.00,,,0.00,meteohub,2013-09-14 08:47:00,
2013-09-14 01:52:00,66.7,39.6,29.72,SW,221,0.0,0.0,37,0.00,,,0.00,meteohub,2013-09-14 08:52:00,
2013-09-14 01:57:00,66.7,39.6,29.73,SW,221,0.0,0.0,37,0.00,,,0.00,meteohub,2013-09-14 08:57:00,
2013-09-14 02:02:00,66.4,39.9,29.73,SW,221,0.0,0.0,38,0.00,,,0.00,meteohub,2013-09-14 09:02:00,
2013-09-14 02:07:00,66.2,39.9,29.73,SW,221,0.0,0.0,38,0.00,,,0.00,meteohub,2013-09-14 09:07:00,
2013-09-14 02:12:00,66.0,39.7,29.72,SW,221,0.0,0.0,38,0.00,,,0.00,meteohub,2013-09-14 09:12:00,
2013-09-14 02:17:00,66.0,39.0,29.72,SW,219,0.0,0.0,37,0.00,,,0.00,meteohub,2013-09-14 09:17:00,
2013-09-14 02:22:00,66.0,39.0,29.72,SW,221,0.0,0.0,37,0.00,,,0.00,meteohub,2013-09-14 09:22:00,
2013-09-14 02:27:00,66.0,39.0,29.72,SW,221,0.0,0.0,37,0.00,,,0.00,meteohub,2013-09-14 09:27:00,
2013-09-14 02:32:00,66.0,39.0,29.72,SW,221,0.0,0.0,37,0.00,,,0.00,meteohub,2013-09-14 09:32:00,
2013-09-14 02:37:00,66.0,38.3,29.72,SW,219,0.0,0.0,36,0.00,,,0.00,meteohub,2013-09-14 09:37:00,
2013-09-14 02:42:00,66.4,38.7,29.72,SW,219,0.0,0.0,36,0.00,,,0.00,meteohub,2013-09-14 09:42:00,
2013-09-14 02:47:00,66.2,37.8,29.72,SW,214,0.0,0.0,35,0.00,,,0.00,meteohub,2013-09-14 09:47:00,
2013-09-14 02:52:00,66.4,37.9,29.72,SW,214,0.0,0.0,35,0.00,,,0.00,meteohub,2013-09-14 09:52:00,
2013-09-14 02:57:00,66.4,37.9,29.72,SW,214,0.0,0.0,35,0.00,,,0.00,meteohub,2013-09-14 09:57:00,
2013-09-14 03:02:00,66.2,37.8,29.72,SW,214,0.0,0.0,35,0.00,,,0.00,meteohub,2013-09-14 10:02:00,
2013-09-14 03:07:00,66.2,38.5,29.72,SW,214,0.0,0.0,36,0.00,,,0.00,meteohub,2013-09-14 10:07:00,
2013-09-14 03:12:00,66.2,38.5,29.72,SW,214,0.0,0.0,36,0.00,,,0.00,meteohub,2013-09-14 10:12:00,
2013-09-14 03:17:00,66.0,39.0,29.72,SW,214,0.0,0.0,37,0.00,,,0.00,meteohub,2013-09-14 10:17:00,
2013-09-14 03:22:00,66.0,39.0,29.72,SW,214,0.0,0.0,37,0.00,,,0.00,meteohub,2013-09-14 10:22:00,
2013-09-14 03:27:00,66.0,39.7,29.72,SW,214,0.0,0.0,38,0.00,,,0.00,meteohub,2013-09-14 10:27:00,
2013-09-14 03:32:00,66.0,39.7,29.71,SW,217,0.0,0.0,38,0.00,,,0.00,meteohub,2013-09-14 10:32:00,
2013-09-14 03:37:00,66.0,40.3,29.71,SSW,211,0.0,0.0,39,0.00,,,0.00,meteohub,2013-09-14 10:37:00,
2013-09-14 03:42:00,66.0,41.0,29.71,SSW,211,0.0,0.0,40,0.00,,,0.00,meteohub,2013-09-14 10:42:00,
2013-09-14 03:47:00,66.0,41.0,29.71,SSW,213,0.0,0.0,40,0.00,,,0.00,meteohub,2013-09-14 10:47:00,
2013-09-14 03:52:00,66.0,41.0,29.71,SSW,210,0.0,0.0,40,0.00,,,0.00,meteohub,2013-09-14 10:52:00,
2013-09-14 03:57:00,66.0,41.0,29.71,SSW,210,0.0,0.0,40,0.00,,,0.00,meteohub,2013-09-14 10:57:00,
2013-09-14 04:02:00,66.0,41.0,29.70,SSW,210,0.0,0.0,40,0.00,,,0.00,meteohub,2013-09-14 11:02:00,
2013-09-14 04:07:00,66.0,41.0,29.70,SSW,210,0.0,0.0,40,0.00,,,0.00,meteohub,2013-09-14 11:07:00,
2013-09-14 04:12:00,66.0,41.7,29.70,SSW,210,0.0,0.0,41,0.00,,,0.00,meteohub,2013-09-14 11:12:00,
2013-09-14 04:17:00,66.0,41.0,29.70,SSW,210,0.0,0.0,40,0.00,,,0.00,meteohub,2013-09-14 11:17:00,
2013-09-14 04:22:00,65.8,40.8,29.70,SSW,210,0.0,0.0,40,0.00,,,0.00,meteohub,2013-09-14 11:22:00,
2013-09-14 04:27:00,65.8,41.5,29.70,SSW,210,0.0,0.0,41,0.00,,,0.00,meteohub,2013-09-14 11:27:00,
2013-09-14 04:32:00,65.8,41.5,29.70,SSW,210,0.0,0.0,41,0.00,,,0.00,meteohub,2013-09-14 11:32:00,
2013-09-14 04:37:00,65.8,41.5,29.70,SSW,210,0.0,0.0,41,0.00,,,0.00,meteohub,2013-09-14 11:37:00,
2013-09-14 04:42:00,65.8,41.5,29.71,SSW,210,0.0,0.0,41,0.00,,,0.00,meteohub,2013-09-14 11:42:00,
2013-09-14 04:47:00,65.8,40.8,29.70,SSW,210,0.0,0.0,40,0.00,,,0.00,meteohub,2013-09-14 11:47:00,
2013-09-14 04:52:00,65.8,40.1,29.70,SSW,210,0.0,0.0,39,0.00,,,0.00,meteohub,2013-09-14 11:52:00,
2013-09-14 04:57:00,66.0,40.3,29.70,SSW,211,0.0,0.0,39,0.00,,,0.00,meteohub,2013-09-14 11:57:00,
2013-09-14 05:02:00,66.0,40.3,29.70,SSW,212,0.0,0.0,39,0.00,,,0.00,meteohub,2013-09-14 12:02:00,
2013-09-14 05:07:00,66.0,39.7,29.70,SSW,212,0.0,0.0,38,0.00,,,0.00,meteohub,2013-09-14 12:07:00,
2013-09-14 05:12:00,66.0,39.7,29.71,SSW,212,0.0,0.0,38,0.00,,,0.00,meteohub,2013-09-14 12:12:00,
2013-09-14 05:17:00,66.0,39.7,29.71,SSW,212,0.0,0.0,38,0.00,,,0.00,meteohub,2013-09-14 12:17:00,
2013-09-14 05:22:00,66.2,39.9,29.71,SSW,212,0.0,0.0,38,0.00,,,0.00,meteohub,2013-09-14 12:22:00,
2013-09-14 05:27:00,66.4,39.4,29.71,SSW,212,0.0,0.0,37,0.00,,,0.00,meteohub,2013-09-14 12:27:00,
2013-09-14 05:32:00,66.4,39.4,29.71,SSW,212,0.0,0.0,37,0.00,,,0.00,meteohub,2013-09-14 12:32:00,
2013-09-14 05:37:00,66.2,39.2,29.71,SSW,212,0.0,0.0,37,0.00,,,0.00,meteohub,2013-09-14 12:37:00,
2013-09-14 05:42:00,66.2,38.5,29.71,SSW,210,0.0,0.0,36,0.00,,,0.00,meteohub,2013-09-14 12:42:00,
2013-09-14 05:47:00,66.2,39.2,29.71,SSW,211,0.0,0.0,37,0.00,,,0.00,meteohub,2013-09-14 12:47:00,
2013-09-14 05:52:00,66.2,39.2,29.71,SSW,211,0.0,0.0,37,0.00,,,0.00,meteohub,2013-09-14 12:52:00,
2013-09-14 05:57:00,66.2,38.5,29.71,SSW,211,0.0,0.0,36,0.00,,,0.00,meteohub,2013-09-14 12:57:00,
2013-09-14 06:02:00,66.4,38.7,29.72,SSW,210,0.0,0.0,36,0.00,,,0.00,meteohub,2013-09-14 13:02:00,
2013-09-14 06:07:00,66.6,38.8,29.72,SSW,203,0.0,0.0,36,0.00,,,0.00,meteohub,2013-09-14 13:07:00,
2013-09-14 06:12:00,66.6,38.8,29.72,SSW,203,0.0,0.0,36,0.00,,,0.00,meteohub,2013-09-14 13:12:00,
2013-09-14 06:17:00,66.7,39.0,29.72,SSW,205,0.0,0.0,36,0.00,,,0.00,meteohub,2013-09-14 13:17:00,
2013-09-14 06:22:00,66.6,38.8,29.72,SSW,205,0.0,0.0,36,0.00,,,0.00,meteohub,2013-09-14 13:22:00,
2013-09-14 06:27:00,66.6,38.8,29.72,SSW,205,0.0,0.0,36,0.00,,,0.00,meteohub,2013-09-14 13:27:00,
2013-09-14 06:32:00,66.4,38.7,29.72,SSW,205,0.0,0.0,36,0.00,,,0.00,meteohub,2013-09-14 13:32:00,
2013-09-14 06:37:00,66.4,38.7,29.72,SSW,205,0.0,0.0,36,0.00,,,0.00,meteohub,2013-09-14 13:37:00,
2013-09-14 06:42:00,66.6,38.8,29.73,SSW,205,0.0,0.0,36,0.00,,,0.00,meteohub,2013-09-14 13:42:00,
2013-09-14 06:47:00,66.6,38.8,29.73,SSW,205,0.0,0.0,36,0.00,,,0.00,meteohub,2013-09-14 13:47:00,
2013-09-14 06:52:00,66.6,38.8,29.73,SSW,205,0.0,0.0,36,0.00,,,0.00,meteohub,2013-09-14 13:52:00,
2013-09-14 06:57:00,66.6,38.8,29.73,SSW,205,0.0,0.0,36,0.00,,,0.00,meteohub,2013-09-14 13:57:00,
2013-09-14 07:02:00,66.9,39.0,29.73,SSW,205,0.0,0.0,36,0.00,,,0.00,meteohub,2013-09-14 14:02:00,
2013-09-14 07:07:00,67.3,40.1,29.73,SSW,205,0.0,0.0,37,0.00,,,0.00,meteohub,2013-09-14 14:07:00,
2013-09-14 07:12:00,67.6,41.7,29.73,SSW,205,0.0,0.0,39,0.00,,,0.00,meteohub,2013-09-14 14:12:00,
2013-09-14 07:17:00,68.2,41.0,29.73,SSW,205,0.0,0.0,37,0.00,,,0.00,meteohub,2013-09-14 14:17:00,
2013-09-14 07:22:00,68.7,40.6,29.73,SSW,205,0.0,0.0,36,0.00,,,0.00,meteohub,2013-09-14 14:22:00,
2013-09-14 07:27:00,69.4,42.1,29.74,SSW,205,0.0,0.0,37,0.00,,,0.00,meteohub,2013-09-14 14:27:00,
2013-09-14 07:32:00,71.2,43.0,29.74,SSW,205,0.0,0.0,36,0.00,,,0.00,meteohub,2013-09-14 14:32:00,
2013-09-14 07:37:00,72.7,41.9,29.74,SSW,205,0.0,0.0,33,0.00,,,0.00,meteohub,2013-09-14 14:37:00,
2013-09-14 07:42:00,73.2,39.9,29.74,SSW,205,0.0,0.0,30,0.00,,,0.00,meteohub,2013-09-14 14:42:00,
2013-09-14 07:47:00,73.8,39.6,29.74,SSW,205,0.0,0.0,29,0.00,,,0.00,meteohub,2013-09-14 14:47:00,
2013-09-14 07:52:00,73.2,39.0,29.74,SSW,205,0.0,0.0,29,0.00,,,0.00,meteohub,2013-09-14 14:52:00,
2013-09-14 07:57:00,73.6,39.4,29.74,SSW,205,0.0,0.0,29,0.00,,,0.00,meteohub,2013-09-14 14:57:00,
2013-09-14 08:02:00,74.1,39.9,29.74,SSW,205,0.0,0.0,29,0.00,,,0.00,meteohub,2013-09-14 15:02:00,
2013-09-14 08:07:00,75.0,39.7,29.74,SSW,203,0.0,0.0,28,0.00,,,0.00,meteohub,2013-09-14 15:07:00,
2013-09-14 08:12:00,75.7,40.3,29.74,ESE,121,0.0,0.0,28,0.00,,,0.00,meteohub,2013-09-14 15:12:00,
2013-09-14 08:17:00,75.6,40.1,29.74,ESE,114,0.0,0.0,28,0.00,,,0.00,meteohub,2013-09-14 15:17:00,
2013-09-14 08:22:00,76.1,40.6,29.74,ESE,114,0.0,0.0,28,0.00,,,0.00,meteohub,2013-09-14 15:22:00,
2013-09-14 08:27:00,76.8,41.2,29.74,ESE,114,0.0,0.0,28,0.00,,,0.00,meteohub,2013-09-14 15:27:00,
2013-09-14 08:32:00,77.2,42.4,29.74,ESE,104,0.0,0.0,29,0.00,,,0.00,meteohub,2013-09-14 15:32:00,
2013-09-14 08:37:00,77.4,42.6,29.74,ESE,108,0.0,0.0,29,0.00,,,0.00,meteohub,2013-09-14 15:37:00,
2013-09-14 08:42:00,77.5,42.8,29.73,ESE,110,0.0,0.0,29,0.00,,,0.00,meteohub,2013-09-14 15:42:00,
2013-09-14 08:47:00,77.5,41.9,29.73,East,94,0.0,0.0,28,0.00,,,0.00,meteohub,2013-09-14 15:47:00,
2013-09-14 08:52:00,77.5,41.0,29.73,East,87,0.0,0.0,27,0.00,,,0.00,meteohub,2013-09-14 15:52:00,
2013-09-14 08:57:00,78.3,42.4,29.74,ESE,112,0.0,0.0,28,0.00,,,0.00,meteohub,2013-09-14 15:57:00,
2013-09-14 09:02:00,79.0,42.1,29.74,ESE,104,0.0,0.0,27,0.00,,,0.00,meteohub,2013-09-14 16:02:00,
2013-09-14 09:07:00,79.2,41.4,29.74,SE,133,0.0,0.0,26,0.00,,,0.00,meteohub,2013-09-14 16:07:00,
2013-09-14 09:12:00,79.7,41.7,29.74,NE,44,0.0,0.0,26,0.00,,,0.00,meteohub,2013-09-14 16:12:00,
2013-09-14 09:17:00,80.2,41.2,29.74,NE,47,0.0,0.0,25,0.00,,,0.00,meteohub,2013-09-14 16:17:00,
2013-09-14 09:22:00,80.8,42.6,29.74,NE,47,0.0,0.0,26,0.00,,,0.00,meteohub,2013-09-14 16:22:00,
2013-09-14 09:27:00,81.0,41.9,29.74,NNE,27,0.0,0.0,25,0.00,,,0.00,meteohub,2013-09-14 16:27:00,
2013-09-14 09:32:00,81.0,41.9,29.74,WNW,291,2.0,0.0,25,0.00,,,0.00,meteohub,2013-09-14 16:32:00,
2013-09-14 09:37:00,79.3,40.5,29.73,NW,304,3.0,4.0,25,0.00,,,0.00,meteohub,2013-09-14 16:37:00,
2013-09-14 09:47:00,79.0,41.2,29.73,NE,49,1.0,4.0,26,0.00,,,0.00,meteohub,2013-09-14 16:47:00,
2013-09-14 09:52:00,79.9,43.9,29.73,SSW,203,0.0,3.0,28,0.00,,,0.00,meteohub,2013-09-14 16:52:00,
2013-09-14 09:57:00,81.0,40.8,29.73,NW,326,0.0,3.0,24,0.00,,,0.00,meteohub,2013-09-14 16:57:00,
2013-09-14 10:02:00,81.3,39.9,29.73,ESE,115,0.0,3.0,23,0.00,,,0.00,meteohub,2013-09-14 17:02:00,
2013-09-14 10:07:00,81.7,37.9,29.73,SE,133,3.0,3.0,21,0.00,,,0.00,meteohub,2013-09-14 17:07:00,
2013-09-14 10:12:00,81.3,38.8,29.73,South,180,2.0,4.0,22,0.00,,,0.00,meteohub,2013-09-14 17:12:00,
2013-09-14 10:17:00,81.9,39.2,29.73,SE,125,0.0,4.0,22,0.00,,,0.00,meteohub,2013-09-14 17:17:00,
2013-09-14 10:22:00,82.2,38.5,29.73,NW,319,1.0,6.0,21,0.00,,,0.00,meteohub,2013-09-14 17:22:00,
2013-09-14 10:27:00,82.0,38.3,29.73,WSW,255,3.0,6.0,21,0.00,,,0.00,meteohub,2013-09-14 17:27:00,
2013-09-14 10:32:00,81.1,36.3,29.73,West,273,1.0,6.0,20,0.00,,,0.00,meteohub,2013-09-14 17:32:00,
2013-09-14 10:37:00,80.4,39.2,29.73,South,178,1.0,6.0,23,0.00,,,0.00,meteohub,2013-09-14 17:37:00,
2013-09-14 10:42:00,81.1,37.6,29.73,SE,127,1.0,6.0,21,0.00,,,0.00,meteohub,2013-09-14 17:42:00,
2013-09-14 10:47:00,82.0,39.4,29.73,West,272,1.0,6.0,22,0.00,,,0.00,meteohub,2013-09-14 17:47:00,
2013-09-14 10:52:00,81.9,38.1,29.73,South,176,1.0,5.0,21,0.00,,,0.00,meteohub,2013-09-14 17:52:00,
2013-09-14 10:57:00,81.7,39.2,29.73,SSE,152,3.0,5.0,22,0.00,,,0.00,meteohub,2013-09-14 17:57:00,
2013-09-14 11:02:00,81.7,39.2,29.73,WNW,288,1.0,5.0,22,0.00,,,0.00,meteohub,2013-09-14 18:02:00,
2013-09-14 11:07:00,81.9,39.2,29.73,SSE,150,1.0,5.0,22,0.00,,,0.00,meteohub,2013-09-14 18:07:00,
2013-09-14 11:12:00,82.9,39.0,29.73,SSW,198,2.0,4.0,21,0.00,,,0.00,meteohub,2013-09-14 18:12:00,
2013-09-14 11:17:00,82.8,38.8,29.73,WNW,287,3.0,5.0,21,0.00,,,0.00,meteohub,2013-09-14 18:17:00,
2013-09-14 11:22:00,82.2,39.6,29.73,SE,130,4.0,7.0,22,0.00,,,0.00,meteohub,2013-09-14 18:22:00,
2013-09-14 11:27:00,83.1,40.3,29.73,WNW,290,2.0,7.0,22,0.00,,,0.00,meteohub,2013-09-14 18:27:00,
2013-09-14 11:32:00,82.9,39.0,29.73,SE,127,2.0,6.0,21,0.00,,,0.00,meteohub,2013-09-14 18:32:00,
2013-09-14 11:37:00,82.4,39.7,29.73,SSW,212,2.0,6.0,22,0.00,,,0.00,meteohub,2013-09-14 18:37:00,
2013-09-14 11:42:00,82.9,39.0,29.72,ESE,118,3.0,6.0,21,0.00,,,0.00,meteohub,2013-09-14 18:42:00,
2013-09-14 11:47:00,82.8,40.1,29.73,SW,214,2.0,6.0,22,0.00,,,0.00,meteohub,2013-09-14 18:47:00,
2013-09-14 11:52:00,82.6,41.0,29.73,South,184,1.0,5.0,23,0.00,,,0.00,meteohub,2013-09-14 18:52:00,
2013-09-14 11:57:00,82.9,40.1,29.72,East,86,2.0,5.0,22,0.00,,,0.00,meteohub,2013-09-14 18:57:00,
2013-09-14 12:02:00,83.5,40.6,29.72,South,176,2.0,5.0,22,0.00,,,0.00,meteohub,2013-09-14 19:02:00,
2013-09-14 12:07:00,83.5,40.6,29.72,SE,141,5.0,7.0,22,0.00,,,0.00,meteohub,2013-09-14 19:07:00,
2013-09-14 12:12:00,83.3,40.5,29.72,SW,224,2.0,7.0,22,0.00,,,0.00,meteohub,2013-09-14 19:12:00,
2013-09-14 12:17:00,83.5,41.7,29.72,ENE,59,2.0,7.0,23,0.00,,,0.00,meteohub,2013-09-14 19:17:00,
2013-09-14 12:22:00,82.9,42.4,29.72,SW,215,2.0,7.0,24,0.00,,,0.00,meteohub,2013-09-14 19:22:00,
2013-09-14 12:27:00,83.3,42.8,29.72,SW,219,1.0,7.0,24,0.00,,,0.00,meteohub,2013-09-14 19:27:00,
2013-09-14 12:32:00,83.3,42.8,29.72,SSW,207,3.0,8.0,24,0.00,,,0.00,meteohub,2013-09-14 19:32:00,
2013-09-14 12:37:00,83.7,41.9,29.71,ESE,107,3.0,8.0,23,0.00,,,0.00,meteohub,2013-09-14 19:37:00,
2013-09-14 12:42:00,83.3,41.7,29.71,SE,143,4.0,8.0,23,0.00,,,0.00,meteohub,2013-09-14 19:42:00,
2013-09-14 12:47:00,82.9,42.4,29.71,SE,143,2.0,10.0,24,0.00,,,0.00,meteohub,2013-09-14 19:47:00,
2013-09-14 12:52:00,82.9,40.1,29.71,SSE,153,3.0,10.0,22,0.00,,,0.00,meteohub,2013-09-14 19:52:00,
2013-09-14 12:57:00,83.1,40.3,29.71,NE,44,1.0,10.0,22,0.00,,,0.00,meteohub,2013-09-14 19:57:00,
2013-09-14 13:02:00,83.5,41.7,29.71,East,89,4.0,6.0,23,0.00,,,0.00,meteohub,2013-09-14 20:02:00,
2013-09-14 13:07:00,83.1,42.6,29.71,WSW,253,3.0,6.0,24,0.00,,,0.00,meteohub,2013-09-14 20:07:00,
2013-09-14 13:12:00,83.1,42.6,29.71,SSW,195,2.0,7.0,24,0.00,,,0.00,meteohub,2013-09-14 20:12:00,
2013-09-14 13:17:00,83.8,43.2,29.71,South,176,2.0,7.0,24,0.00,,,0.00,meteohub,2013-09-14 20:17:00,
2013-09-14 13:22:00,83.5,40.6,29.71,SW,224,2.0,6.0,22,0.00,,,0.00,meteohub,2013-09-14 20:22:00,
2013-09-14 13:27:00,83.3,41.7,29.71,ESE,108,4.0,7.0,23,0.00,,,0.00,meteohub,2013-09-14 20:27:00,
2013-09-14 13:32:00,82.9,41.4,29.70,SSW,201,2.0,7.0,23,0.00,,,0.00,meteohub,2013-09-14 20:32:00,
2013-09-14 13:37:00,82.9,41.4,29.70,SW,221,2.0,7.0,23,0.00,,,0.00,meteohub,2013-09-14 20:37:00,
2013-09-14 13:42:00,82.9,40.1,29.70,SE,143,1.0,10.0,22,0.00,,,0.00,meteohub,2013-09-14 20:42:00,
2013-09-14 13:47:00,82.9,42.4,29.70,SSE,156,1.0,10.0,24,0.00,,,0.00,meteohub,2013-09-14 20:47:00,
2013-09-14 13:52:00,83.1,41.5,29.70,SE,146,3.0,10.0,23,0.00,,,0.00,meteohub,2013-09-14 20:52:00,
2013-09-14 13:57:00,82.8,41.2,29.69,SW,233,3.0,7.0,23,0.00,,,0.00,meteohub,2013-09-14 20:57:00,
2013-09-14 14:02:00,82.9,41.4,29.69,East,86,5.0,7.0,23,0.00,,,0.00,meteohub,2013-09-14 21:02:00,
2013-09-14 14:07:00,82.9,41.4,29.69,SSE,151,1.0,8.0,23,0.00,,,0.00,meteohub,2013-09-14 21:07:00,
2013-09-14 14:12:00,83.1,41.5,29.69,South,190,1.0,8.0,23,0.00,,,0.00,meteohub,2013-09-14 21:12:00,
2013-09-14 14:17:00,83.1,40.3,29.69,East,101,2.0,8.0,22,0.00,,,0.00,meteohub,2013-09-14 21:17:00,
2013-09-14 14:22:00,83.1,41.5,29.68,SSE,162,1.0,10.0,23,0.00,,,0.00,meteohub,2013-09-14 21:22:00,
2013-09-14 14:27:00,82.9,41.4,29.69,NW,319,2.0,10.0,23,0.00,,,0.00,meteohub,2013-09-14 21:27:00,
2013-09-14 14:32:00,82.9,41.4,29.69,SSE,149,1.0,10.0,23,0.00,,,0.00,meteohub,2013-09-14 21:32:00,
2013-09-14 14:37:00,82.8,42.3,29.68,SSW,205,3.0,8.0,24,0.00,,,0.00,meteohub,2013-09-14 21:37:00,
2013-09-14 14:42:00,82.4,40.8,29.68,SE,141,6.0,7.0,23,0.00,,,0.00,meteohub,2013-09-14 21:42:00,
2013-09-14 14:47:00,82.2,41.9,29.68,SSE,156,2.0,9.0,24,0.00,,,0.00,meteohub,2013-09-14 21:47:00,
2013-09-14 14:52:00,81.9,42.6,29.68,NE,41,3.0,10.0,25,0.00,,,0.00,meteohub,2013-09-14 21:52:00,
2013-09-14 14:57:00,81.5,41.2,29.68,NW,314,2.0,10.0,24,0.00,,,0.00,meteohub,2013-09-14 21:57:00,
2013-09-14 15:02:00,81.5,43.3,29.68,SE,146,2.0,10.0,26,0.00,,,0.00,meteohub,2013-09-14 22:02:00,
2013-09-14 15:07:00,81.9,42.6,29.68,East,88,2.0,10.0,25,0.00,,,0.00,meteohub,2013-09-14 22:07:00,
2013-09-14 15:12:00,82.0,42.8,29.68,East,94,6.0,7.0,25,0.00,,,0.00,meteohub,2013-09-14 22:12:00,
2013-09-14 15:17:00,81.5,43.3,29.68,NW,321,1.0,10.0,26,0.00,,,0.00,meteohub,2013-09-14 22:17:00,
2013-09-14 15:22:00,81.3,43.2,29.67,East,97,4.0,12.0,26,0.00,,,0.00,meteohub,2013-09-14 22:22:00,
2013-09-14 15:27:00,81.7,42.4,29.68,ESE,121,0.0,12.0,25,0.00,,,0.00,meteohub,2013-09-14 22:27:00,
2013-09-14 15:32:00,81.1,43.0,29.68,WSW,250,3.0,8.0,26,0.00,,,0.00,meteohub,2013-09-14 22:32:00,
2013-09-14 15:37:00,80.4,44.2,29.67,SW,214,4.0,8.0,28,0.00,,,0.00,meteohub,2013-09-14 22:37:00,
2013-09-14 15:42:00,80.2,43.2,29.67,SW,225,5.0,8.0,27,0.00,,,0.00,meteohub,2013-09-14 22:42:00,
2013-09-14 15:47:00,80.2,43.2,29.67,SW,222,3.0,8.0,27,0.00,,,0.00,meteohub,2013-09-14 22:47:00,
2013-09-14 15:52:00,80.1,43.0,29.67,East,98,4.0,8.0,27,0.00,,,0.00,meteohub,2013-09-14 22:52:00,
2013-09-14 15:57:00,80.1,43.0,29.67,WSW,257,3.0,8.0,27,0.00,,,0.00,meteohub,2013-09-14 22:57:00,
2013-09-14 16:02:00,79.9,41.9,29.67,ESE,112,2.0,8.0,26,0.00,,,0.00,meteohub,2013-09-14 23:02:00,
2013-09-14 16:07:00,79.9,43.0,29.67,South,187,1.0,8.0,27,0.00,,,0.00,meteohub,2013-09-14 23:07:00,
2013-09-14 16:12:00,79.7,42.8,29.67,ESE,119,6.0,8.0,27,0.00,,,0.00,meteohub,2013-09-14 23:12:00,
2013-09-14 16:17:00,79.7,42.8,29.67,ESE,105,0.0,12.0,27,0.00,,,0.00,meteohub,2013-09-14 23:17:00,
2013-09-14 16:22:00,79.7,41.7,29.67,East,89,4.0,12.0,26,0.00,,,0.00,meteohub,2013-09-14 23:22:00,
2013-09-14 16:27:00,79.2,41.4,29.67,SSE,153,2.0,12.0,26,0.00,,,0.00,meteohub,2013-09-14 23:27:00,
2013-09-14 16:32:00,78.6,41.9,29.67,SE,132,4.0,9.0,27,0.00,,,0.00,meteohub,2013-09-14 23:32:00,
2013-09-14 16:37:00,78.4,41.7,29.67,SE,129,2.0,9.0,27,0.00,,,0.00,meteohub,2013-09-14 23:37:00,
2013-09-14 16:42:00,78.3,40.6,29.67,ENE,68,0.0,7.0,26,0.00,,,0.00,meteohub,2013-09-14 23:42:00,
2013-09-14 16:47:00,78.1,41.4,29.67,SSW,200,2.0,7.0,27,0.00,,,0.00,meteohub,2013-09-14 23:47:00,
2013-09-14 16:52:00,77.7,41.0,29.67,SE,124,2.0,8.0,27,0.00,,,0.00,meteohub,2013-09-14 23:52:00,
2013-09-14 16:57:00,77.7,41.0,29.67,West,271,1.0,8.0,27,0.00,,,0.00,meteohub,2013-09-14 23:57:00,
2013-09-14 17:02:00,77.4,40.8,29.67,ENE,74,1.0,7.0,27,0.00,,,0.00,meteohub,2013-09-15 00:02:00,
2013-09-14 17:07:00,77.4,40.8,29.67,SE,127,2.0,6.0,27,0.00,,,0.00,meteohub,2013-09-15 00:07:00,
2013-09-14 17:12:00,77.2,41.5,29.67,WSW,252,2.0,6.0,28,0.00,,,0.00,meteohub,2013-09-15 00:12:00,
2013-09-14 17:17:00,77.0,41.4,29.67,South,190,0.0,7.0,28,0.00,,,0.00,meteohub,2013-09-15 00:17:00,
2013-09-14 17:22:00,76.6,41.2,29.67,SW,214,1.0,9.0,28,0.00,,,0.00,meteohub,2013-09-15 00:22:00,
2013-09-14 17:27:00,76.5,41.9,29.67,ESE,117,3.0,9.0,29,0.00,,,0.00,meteohub,2013-09-15 00:27:00,
2013-09-14 17:32:00,76.3,41.7,29.67,SE,146,3.0,9.0,29,0.00,,,0.00,meteohub,2013-09-15 00:32:00,
2013-09-14 17:37:00,76.1,41.5,29.67,SE,139,0.0,8.0,29,0.00,,,0.00,meteohub,2013-09-15 00:37:00,
2013-09-14 17:42:00,75.9,41.4,29.67,ESE,107,2.0,8.0,29,0.00,,,0.00,meteohub,2013-09-15 00:42:00,
2013-09-14 17:47:00,75.7,42.1,29.67,SE,127,2.0,8.0,30,0.00,,,0.00,meteohub,2013-09-15 00:47:00,
2013-09-14 17:52:00,75.6,41.9,29.67,SE,135,3.0,8.0,30,0.00,,,0.00,meteohub,2013-09-15 00:52:00,
2013-09-14 17:57:00,75.4,42.6,29.67,SSW,203,0.0,8.0,31,0.00,,,0.00,meteohub,2013-09-15 00:57:00,
2013-09-14 18:02:00,75.0,43.2,29.67,SSW,199,1.0,8.0,32,0.00,,,0.00,meteohub,2013-09-15 01:02:00,
2013-09-14 18:07:00,74.8,42.3,29.67,SE,139,2.0,6.0,31,0.00,,,0.00,meteohub,2013-09-15 01:07:00,
2013-09-14 18:12:00,74.5,42.6,29.67,SE,135,1.0,6.0,32,0.00,,,0.00,meteohub,2013-09-15 01:12:00,
2013-09-14 18:17:00,74.1,42.4,29.67,SSE,161,1.0,5.0,32,0.00,,,0.00,meteohub,2013-09-15 01:17:00,
2013-09-14 18:22:00,73.9,43.0,29.67,ESE,121,1.0,3.0,33,0.00,,,0.00,meteohub,2013-09-15 01:22:00,
2013-09-14 18:27:00,73.6,42.6,29.67,SE,128,1.0,3.0,33,0.00,,,0.00,meteohub,2013-09-15 01:27:00,
2013-09-14 18:32:00,73.4,43.3,29.67,SE,141,1.0,6.0,34,0.00,,,0.00,meteohub,2013-09-15 01:32:00,
2013-09-14 18:37:00,73.0,43.0,29.67,SSW,194,0.0,6.0,34,0.00,,,0.00,meteohub,2013-09-15 01:37:00,
2013-09-14 18:42:00,72.9,43.5,29.67,SE,144,5.0,6.0,35,0.00,,,0.00,meteohub,2013-09-15 01:42:00,
2013-09-14 18:47:00,72.7,43.5,29.67,SSE,158,3.0,6.0,35,0.00,,,0.00,meteohub,2013-09-15 01:47:00,
2013-09-14 18:52:00,72.3,43.9,29.67,SSE,158,0.0,6.0,36,0.00,,,0.00,meteohub,2013-09-15 01:52:00,
2013-09-14 18:57:00,72.1,43.7,29.67,SSE,165,1.0,6.0,36,0.00,,,0.00,meteohub,2013-09-15 01:57:00,
2013-09-14 19:02:00,71.8,44.1,29.67,SE,134,1.0,4.0,37,0.00,,,0.00,meteohub,2013-09-15 02:02:00,
2013-09-14 19:07:00,71.6,43.2,29.67,SSE,158,0.0,4.0,36,0.00,,,0.00,meteohub,2013-09-15 02:07:00,
2013-09-14 19:12:00,71.4,43.7,29.67,ESE,104,1.0,6.0,37,0.00,,,0.00,meteohub,2013-09-15 02:12:00,
2013-09-14 19:17:00,71.2,43.0,29.68,ESE,106,0.0,6.0,36,0.00,,,0.00,meteohub,2013-09-15 02:17:00,
2013-09-14 19:22:00,71.2,41.4,29.68,SE,124,3.0,6.0,34,0.00,,,0.00,meteohub,2013-09-15 02:22:00,
2013-09-14 19:27:00,71.4,40.1,29.68,SE,136,1.0,6.0,32,0.00,,,0.00,meteohub,2013-09-15 02:27:00,
2013-09-14 19:32:00,71.2,39.0,29.68,South,181,3.0,5.0,31,0.00,,,0.00,meteohub,2013-09-15 02:32:00,
2013-09-14 19:37:00,71.4,38.3,29.68,SE,143,2.0,7.0,30,0.00,,,0.00,meteohub,2013-09-15 02:37:00,
2013-09-14 19:42:00,71.4,38.3,29.68,SSE,155,2.0,7.0,30,0.00,,,0.00,meteohub,2013-09-15 02:42:00,
2013-09-14 19:47:00,71.4,38.3,29.68,SSE,160,2.0,7.0,30,0.00,,,0.00,meteohub,2013-09-15 02:47:00,
2013-09-14 19:52:00,71.4,37.6,29.68,South,170,0.0,4.0,29,0.00,,,0.00,meteohub,2013-09-15 02:52:00,
2013-09-14 19:57:00,71.4,37.6,29.69,SSE,149,5.0,6.0,29,0.00,,,0.00,meteohub,2013-09-15 02:57:00,
2013-09-14 20:02:00,71.2,35.6,29.69,ESE,109,2.0,7.0,27,0.00,,,0.00,meteohub,2013-09-15 03:02:00,
2013-09-14 20:07:00,71.4,34.7,29.69,SE,127,2.0,7.0,26,0.00,,,0.00,meteohub,2013-09-15 03:07:00,
2013-09-14 20:12:00,71.4,34.7,29.69,SSE,150,2.0,6.0,26,0.00,,,0.00,meteohub,2013-09-15 03:12:00,
2013-09-14 20:17:00,71.6,34.9,29.70,ESE,113,0.0,6.0,26,0.00,,,0.00,meteohub,2013-09-15 03:17:00,
2013-09-14 20:22:00,71.4,35.8,29.70,ESE,113,1.0,5.0,27,0.00,,,0.00,meteohub,2013-09-15 03:22:00,
2013-09-14 20:27:00,71.4,35.8,29.70,South,187,2.0,5.0,27,0.00,,,0.00,meteohub,2013-09-15 03:27:00,
2013-09-14 20:32:00,71.4,35.8,29.70,SSE,151,1.0,3.0,27,0.00,,,0.00,meteohub,2013-09-15 03:32:00,
2013-09-14 20:37:00,71.4,35.8,29.70,SE,131,2.0,4.0,27,0.00,,,0.00,meteohub,2013-09-15 03:37:00,
2013-09-14 20:42:00,71.4,35.8,29.70,SE,129,1.0,5.0,27,0.00,,,0.00,meteohub,2013-09-15 03:42:00,
2013-09-14 20:47:00,71.4,36.7,29.70,South,177,2.0,5.0,28,0.00,,,0.00,meteohub,2013-09-15 03:47:00,
2013-09-14 20:52:00,71.2,36.5,29.70,SE,134,3.0,5.0,28,0.00,,,0.00,meteohub,2013-09-15 03:52:00,
2013-09-14 20:57:00,71.2,36.5,29.71,SSE,165,2.0,5.0,28,0.00,,,0.00,meteohub,2013-09-15 03:57:00,
2013-09-14 21:02:00,71.2,36.5,29.71,South,169,0.0,5.0,28,0.00,,,0.00,meteohub,2013-09-15 04:02:00,
2013-09-14 21:07:00,71.2,36.5,29.71,SE,132,0.0,4.0,28,0.00,,,0.00,meteohub,2013-09-15 04:07:00,
2013-09-14 21:12:00,71.1,36.3,29.71,SE,138,3.0,4.0,28,0.00,,,0.00,meteohub,2013-09-15 04:12:00,
2013-09-14 21:17:00,71.2,36.5,29.71,SSE,158,2.0,6.0,28,0.00,,,0.00,meteohub,2013-09-15 04:17:00,
2013-09-14 21:22:00,71.2,36.5,29.71,SE,131,2.0,6.0,28,0.00,,,0.00,meteohub,2013-09-15 04:22:00,
2013-09-14 21:27:00,71.2,36.5,29.71,SSE,150,4.0,6.0,28,0.00,,,0.00,meteohub,2013-09-15 04:27:00,
2013-09-14 21:32:00,71.4,36.7,29.71,SW,226,2.0,6.0,28,0.00,,,0.00,meteohub,2013-09-15 04:32:00,
2013-09-14 21:37:00,71.6,36.7,29.71,South,174,1.0,6.0,28,0.00,,,0.00,meteohub,2013-09-15 04:37:00,
2013-09-14 21:42:00,71.4,36.7,29.71,SSE,152,2.0,6.0,28,0.00,,,0.00,meteohub,2013-09-15 04:42:00,
2013-09-14 21:47:00,71.4,36.7,29.71,SE,146,1.0,4.0,28,0.00,,,0.00,meteohub,2013-09-15 04:47:00,
2013-09-14 21:52:00,71.4,36.7,29.71,SSE,163,1.0,4.0,28,0.00,,,0.00,meteohub,2013-09-15 04:52:00,
2013-09-14 21:57:00,71.4,36.7,29.71,SSE,150,0.0,4.0,28,0.00,,,0.00,meteohub,2013-09-15 04:57:00,
2013-09-14 22:02:00,71.2,36.5,29.71,SSE,155,0.0,4.0,28,0.00,,,0.00,meteohub,2013-09-15 05:02:00,
2013-09-14 22:07:00,71.2,36.5,29.71,SSE,155,1.0,4.0,28,0.00,,,0.00,meteohub,2013-09-15 05:07:00,
2013-09-14 22:12:00,71.2,35.6,29.71,SE,127,1.0,3.0,27,0.00,,,0.00,meteohub,2013-09-15 05:12:00,
2013-09-14 22:17:00,71.2,35.6,29.71,ESE,110,1.0,3.0,27,0.00,,,0.00,meteohub,2013-09-15 05:17:00,
2013-09-14 22:22:00,71.2,35.6,29.71,SSE,159,2.0,5.0,27,0.00,,,0.00,meteohub,2013-09-15 05:22:00,
2013-09-14 22:27:00,71.2,35.6,29.72,SSE,163,1.0,5.0,27,0.00,,,0.00,meteohub,2013-09-15 05:27:00,
2013-09-14 22:32:00,71.1,36.3,29.72,SSE,160,2.0,5.0,28,0.00,,,0.00,meteohub,2013-09-15 05:32:00,
2013-09-14 22:37:00,71.1,35.4,29.72,South,170,1.0,4.0,27,0.00,,,0.00,meteohub,2013-09-15 05:37:00,
2013-09-14 22:42:00,71.2,35.6,29.72,SE,136,0.0,4.0,27,0.00,,,0.00,meteohub,2013-09-15 05:42:00,
2013-09-14 22:47:00,71.1,35.4,29.72,SSE,156,0.0,4.0,27,0.00,,,0.00,meteohub,2013-09-15 05:47:00,
2013-09-14 22:52:00,71.1,35.4,29.72,SSE,156,4.0,4.0,27,0.00,,,0.00,meteohub,2013-09-15 05:52:00,
2013-09-14 22:57:00,71.2,35.6,29.72,SSE,167,1.0,5.0,27,0.00,,,0.00,meteohub,2013-09-15 05:57:00,
2013-09-14 23:02:00,71.1,35.4,29.72,SSW,193,1.0,5.0,27,0.00,,,0.00,meteohub,2013-09-15 06:02:00,
2013-09-14 23:07:00,71.1,35.4,29.72,SSE,167,1.0,5.0,27,0.00,,,0.00,meteohub,2013-09-15 06:07:00,
2013-09-14 23:12:00,70.9,35.2,29.72,SSE,149,0.0,3.0,27,0.00,,,0.00,meteohub,2013-09-15 06:12:00,
2013-09-14 23:17:00,70.7,35.1,29.72,South,181,1.0,3.0,27,0.00,,,0.00,meteohub,2013-09-15 06:17:00,
2013-09-14 23:22:00,70.9,35.2,29.72,South,185,3.0,3.0,27,0.00,,,0.00,meteohub,2013-09-15 06:22:00,
2013-09-14 23:27:00,70.9,35.2,29.72,SSE,151,1.0,4.0,27,0.00,,,0.00,meteohub,2013-09-15 06:27:00,
2013-09-14 23:32:00,70.7,35.1,29.72,SSE,151,2.0,4.0,27,0.00,,,0.00,meteohub,2013-09-15 06:32:00,
2013-09-14 23:37:00,70.5,34.9,29.72,SE,128,1.0,4.0,27,0.00,,,0.00,meteohub,2013-09-15 06:37:00,
2013-09-14 23:42:00,70.5,34.9,29.72,SSE,163,0.0,2.0,27,0.00,,,0.00,meteohub,2013-09-15 06:42:00,
2013-09-14 23:47:00,70.5,34.9,29.72,SE,125,1.0,3.0,27,0.00,,,0.00,meteohub,2013-09-15 06:47:00,
2013-09-14 23:52:00,70.5,34.9,29.72,SSW,205,0.0,3.0,27,0.00,,,0.00,meteohub,2013-09-15 06:52:00,
2013-09-14 23:57:00,70.3,35.6,29.72,South,172,0.0,4.0,28,0.00,,,0.00,meteohub,2013-09-15 06:57:00,